Regional Weather Roundup
Issued by NWS Goodland, KS

Home | Current Version | Previous Version | Graphics & Text | Print | Product List | Glossary On
Versions: 1 2 3 4 5 6 7 8 9 10 11 12 13 14 15 16 17 18 19 20 21 22 23 24 25 26 27 28 29 30 31 32 33 34 35 36 37 38 39 40 41 42 43 44 45 46 47 48 49 50
000
ASUS43 KGLD 010559
RWRGLD

GOODLAND FORECAST AREA HOURLY WEATHER ROUNDUP
NATIONAL WEATHER SERVICE GOODLAND KS
1200 AM MDT FRI AUG 01 2014

...OFFICIAL OBSERVATIONS...

CITY           SKY/WX    TMP DP  RH WIND       PRES   REMARKS
GOODLAND KS    NOT AVBL
HILL CITY KS   NOT AVBL
IMPERIAL NEB   NOT AVBL
MCCOOK NEB     NOT AVBL
AKRON CO       NOT AVBL
BURLINGTON CO  NOT AVBL
LIMON CO       NOT AVBL
$$

...UNOFFICIAL OBSERVATIONS...

CITY           SKY/WX    TMP DP  RH WIND       PRES   REMARKS
COLBY KS       CLEAR     63  55  77 W3        30.16R
GOVE KS          N/A     69  32  25 MISG        N/A
LENORA KS        N/A     74  32  21 MISG        N/A
NORTON KS      CLEAR     63  54  72 N6        30.08S
WAKEENEY KS      N/A     70  51  51 MISG        N/A
KIT CARSON CO    N/A     61  54  77 CALM        N/A
YUMA CO          N/A     62  53  73 SW5         N/A
$$



USA.gov is the U.S. government's official web portal to all federal, state and local government web resources and services.